date,time,water_lv
2023-10-01,00:00:00,2.161
2023-10-01,00:10:00,2.16
2023-10-01,00:20:00,2.163
2023-10-01,00:30:00,2.161
2023-10-01,00:40:00,2.16
2023-10-01,00:50:00,2.158
2023-10-01,01:00:00,2.162
2023-10-01,01:10:00,2.162
2023-10-01,01:20:00,2.156
2023-10-01,01:30:00,2.161
2023-10-01,01:40:00,2.163
2023-10-01,01:50:00,2.152
2023-10-01,02:00:00,2.161
2023-10-01,02:10:00,2.163
2023-10-01,02:20:00,2.162
2023-10-01,02:30:00,2.162
2023-10-01,02:40:00,2.163
2023-10-01,02:50:00,2.156
2023-10-01,03:00:00,2.163
2023-10-01,03:10:00,2.162
2023-10-01,03:20:00,2.142
2023-10-01,03:30:00,2.122
2023-10-01,03:40:00,2.442
2023-10-01,03:50:00,2.162
2023-10-01,04:00:00,2.162
2023-10-01,04:10:00,2.163
2023-10-01,04:20:00,2.163
2023-10-01,04:30:00,2.161
2023-10-01,04:40:00,2.162
2023-10-01,04:50:00,2.163
2023-10-01,05:00:00,2.163
2023-10-01,05:10:00,2.163
2023-10-01,05:20:00,2.163
2023-10-01,05:30:00,2.162
2023-10-01,05:40:00,2.164
2023-10-01,05:50:00,2.164
2023-10-01,06:00:00,2.165
2023-10-01,06:10:00,2.164
2023-10-01,06:20:00,2.162
2023-10-01,06:30:00,2.162
2023-10-01,06:40:00,2.167
2023-10-01,06:50:00,2.165
2023-10-01,07:00:00,2.16
2023-10-01,07:10:00,2.121
2023-10-01,07:20:00,2.164
2023-10-01,07:30:00,2.163
2023-10-01,07:40:00,2.162
2023-10-01,07:50:00,2.163
2023-10-01,08:00:00,2.154
2023-10-01,08:10:00,2.162
2023-10-01,08:20:00,2.16
2023-10-01,08:30:00,2.163
2023-10-01,08:40:00,2.162
2023-10-01,08:50:00,2.162
2023-10-01,09:00:00,2.163
2023-10-01,09:10:00,2.158
2023-10-01,09:20:00,2.161
2023-10-01,09:30:00,2.163
2023-10-01,09:40:00,2.162
2023-10-01,09:50:00,2.162
2023-10-01,10:00:00,2.161
2023-10-01,10:10:00,2.162
2023-10-01,10:20:00,2.162
2023-10-01,10:30:00,2.162
2023-10-01,10:40:00,2.161
2023-10-01,10:50:00,2.162
2023-10-01,11:00:00,2.161
2023-10-01,11:10:00,2.162
2023-10-01,11:20:00,2.162
2023-10-01,11:30:00,2.162
2023-10-01,11:40:00,2.162
2023-10-01,11:50:00,2.163
2023-10-01,12:00:00,2.163
2023-10-01,12:10:00,2.163
2023-10-01,12:20:00,2.155
2023-10-01,12:30:00,2.149
2023-10-01,12:40:00,2.161
2023-10-01,12:50:00,2.162
2023-10-01,13:00:00,2.163
2023-10-01,13:10:00,2.16
2023-10-01,13:20:00,2.161
2023-10-01,13:30:00,2.154
2023-10-01,13:40:00,2.161
2023-10-01,13:50:00,2.162
2023-10-01,14:00:00,2.16
2023-10-01,14:10:00,2.163
2023-10-01,14:20:00,2.163
2023-10-01,14:30:00,2.164
2023-10-01,14:40:00,2.163
2023-10-01,14:50:00,2.162
2023-10-01,15:00:00,2.16
2023-10-01,15:10:00,2.163
2023-10-01,15:20:00,2.163
2023-10-01,15:30:00,2.163
2023-10-01,15:40:00,2.162
2023-10-01,15:50:00,2.161
2023-10-01,16:00:00,2.161
2023-10-01,16:10:00,2.162
2023-10-01,16:20:00,2.163
2023-10-01,16:30:00,2.164
2023-10-01,16:40:00,2.163
2023-10-01,16:50:00,2.163
2023-10-01,17:00:00,2.164
2023-10-01,17:10:00,2.163
2023-10-01,17:20:00,2.163
2023-10-01,17:30:00,2.164
2023-10-01,17:40:00,2.164
2023-10-01,17:50:00,2.164
2023-10-01,18:00:00,2.164
2023-10-01,18:10:00,2.163
2023-10-01,18:20:00,2.164
2023-10-01,18:30:00,2.164
2023-10-01,18:40:00,2.164
2023-10-01,18:50:00,2.164
2023-10-01,19:00:00,2.164
2023-10-01,19:10:00,2.164
2023-10-01,19:20:00,2.164
2023-10-01,19:30:00,2.164
2023-10-01,19:40:00,2.14
2023-10-01,19:50:00,2.14
2023-10-01,20:00:00,2.156
2023-10-01,20:10:00,2.165
2023-10-01,20:20:00,2.167
2023-10-01,20:30:00,2.951
2023-10-01,20:40:00,2.141
2023-10-01,20:50:00,2.167
2023-10-01,21:00:00,2.165
2023-10-01,21:10:00,2.165
2023-10-01,21:20:00,2.168
2023-10-01,21:30:00,2.167
2023-10-01,21:40:00,2.167
2023-10-01,21:50:00,2.167
2023-10-01,22:00:00,2.168
2023-10-01,22:10:00,2.168
2023-10-01,22:20:00,2.169
2023-10-01,22:30:00,2.168
2023-10-01,22:40:00,2.17
2023-10-01,22:50:00,2.17
2023-10-01,23:00:00,2.17
2023-10-01,23:10:00,2.135
2023-10-01,23:20:00,2.28
2023-10-01,23:30:00,2.172
2023-10-01,23:40:00,2.172
2023-10-01,23:50:00,2.174
2023-10-02,00:00:00,2.172
2023-10-02,00:10:00,2.175
2023-10-02,00:20:00,2.178
2023-10-02,00:30:00,2.148
2023-10-02,00:40:00,2.176
2023-10-02,00:50:00,2.278
2023-10-02,01:00:00,2.174
2023-10-02,01:10:00,2.175
2023-10-02,01:20:00,2.175
2023-10-02,01:30:00,2.174
2023-10-02,01:40:00,2.174
2023-10-02,01:50:00,2.174
2023-10-02,02:00:00,2.175
2023-10-02,02:10:00,2.174
2023-10-02,02:20:00,2.175
2023-10-02,02:30:00,2.175
2023-10-02,02:40:00,2.175
2023-10-02,02:50:00,2.175
2023-10-02,03:00:00,2.175
2023-10-02,03:10:00,2.174
2023-10-02,03:20:00,2.174
2023-10-02,03:30:00,2.148
2023-10-02,03:40:00,2.144
2023-10-02,03:50:00,2.14
2023-10-02,04:00:00,2.174
2023-10-02,04:10:00,2.172
2023-10-02,04:20:00,2.294
2023-10-02,04:30:00,2.317
2023-10-02,04:40:00,2.142
2023-10-02,04:50:00,2.17
2023-10-02,05:00:00,2.138
2023-10-02,05:10:00,2.138
2023-10-02,05:20:00,2.155
2023-10-02,05:30:00,2.172
2023-10-02,05:40:00,2.251
2023-10-02,05:50:00,2.155
2023-10-02,06:00:00,2.149
2023-10-02,06:10:00,2.157
2023-10-02,06:20:00,2.144
2023-10-02,06:30:00,2.142
2023-10-02,06:40:00,2.174
2023-10-02,06:50:00,2.171
2023-10-02,07:00:00,2.172
2023-10-02,07:10:00,2.172
2023-10-02,07:20:00,2.157
2023-10-02,07:30:00,2.158
2023-10-02,07:40:00,2.165
2023-10-02,07:50:00,2.157
2023-10-02,08:00:00,2.147
2023-10-02,08:10:00,2.143
2023-10-02,08:20:00,2.143
2023-10-02,08:30:00,2.151
2023-10-02,08:40:00,2.157
2023-10-02,08:50:00,2.154
2023-10-02,09:00:00,2.138
2023-10-02,09:10:00,2.143
2023-10-02,09:20:00,2.142
2023-10-02,09:30:00,2.143
2023-10-02,09:40:00,2.142
2023-10-02,09:50:00,2.15
2023-10-02,10:00:00,2.158
2023-10-02,10:10:00,2.141
2023-10-02,10:20:00,2.156
2023-10-02,10:30:00,2.151
2023-10-02,10:40:00,2.137
2023-10-02,10:50:00,2.142
2023-10-02,11:00:00,2.168
2023-10-02,11:10:00,2.17
2023-10-02,11:20:00,2.17
2023-10-02,11:30:00,2.17
2023-10-02,11:40:00,2.163
2023-10-02,11:50:00,2.17
2023-10-02,12:00:00,2.148
2023-10-02,12:10:00,2.172
2023-10-02,12:20:00,2.145
2023-10-02,12:30:00,2.171
2023-10-02,12:40:00,2.164
2023-10-02,12:50:00,2.165
2023-10-02,13:00:00,2.171
2023-10-02,13:10:00,2.171
2023-10-02,13:20:00,2.171
2023-10-02,13:30:00,2.149
2023-10-02,13:40:00,2.158
2023-10-02,13:50:00,2.17
2023-10-02,14:00:00,2.161
2023-10-02,14:10:00,2.171
2023-10-02,14:20:00,2.147
2023-10-02,14:30:00,2.143
2023-10-02,14:40:00,2.172
2023-10-02,14:50:00,2.162
2023-10-02,15:00:00,2.147
2023-10-02,15:10:00,2.15
2023-10-02,15:20:00,2.16
2023-10-02,15:30:00,2.16
2023-10-02,15:40:00,2.17
2023-10-02,15:50:00,2.161
2023-10-02,16:00:00,2.174
2023-10-02,16:10:00,2.174
2023-10-02,16:20:00,2.174
2023-10-02,16:30:00,2.172
2023-10-02,16:40:00,2.172
2023-10-02,16:50:00,2.174
2023-10-02,17:00:00,2.172
2023-10-02,17:10:00,2.172
2023-10-02,17:20:00,2.163
2023-10-02,17:30:00,2.174
2023-10-02,17:40:00,2.174
2023-10-02,17:50:00,2.174
2023-10-02,18:00:00,2.174
2023-10-02,18:10:00,2.172
2023-10-02,18:20:00,2.174
2023-10-02,18:30:00,2.174
2023-10-02,18:40:00,2.546
2023-10-02,18:50:00,2.175
2023-10-02,19:00:00,2.175
2023-10-02,19:10:00,2.175
2023-10-02,19:20:00,2.175
2023-10-02,19:30:00,2.174
2023-10-02,19:40:00,2.175
2023-10-02,19:50:00,2.175
2023-10-02,20:00:00,2.174
2023-10-02,20:10:00,2.171
2023-10-02,20:20:00,2.177
2023-10-02,20:30:00,2.172
2023-10-02,20:40:00,2.175
2023-10-02,20:50:00,2.175
2023-10-02,21:00:00,2.175
2023-10-02,21:10:00,2.149
2023-10-02,21:20:00,2.175
2023-10-02,21:30:00,2.175
2023-10-02,21:40:00,2.176
2023-10-02,21:50:00,2.176
2023-10-02,22:00:00,2.176
2023-10-02,22:10:00,2.176
2023-10-02,22:20:00,2.177
2023-10-02,22:30:00,2.178
2023-10-02,22:40:00,2.177
2023-10-02,22:50:00,2.179
2023-10-02,23:00:00,2.178
2023-10-02,23:10:00,2.178
2023-10-02,23:20:00,2.158
2023-10-02,23:30:00,2.179
2023-10-02,23:40:00,2.162
2023-10-02,23:50:00,2.179
2023-10-03,00:00:00,2.179
2023-10-03,00:10:00,2.183
2023-10-03,00:20:00,2.179
2023-10-03,00:30:00,2.181
2023-10-03,00:40:00,2.181
2023-10-03,00:50:00,2.181
2023-10-03,01:00:00,2.181
2023-10-03,01:10:00,2.182
2023-10-03,01:20:00,2.181
2023-10-03,01:30:00,2.181
2023-10-03,01:40:00,2.179
2023-10-03,01:50:00,2.182
2023-10-03,02:00:00,2.167
2023-10-03,02:10:00,2.179
2023-10-03,02:20:00,2.182
2023-10-03,02:30:00,2.182
2023-10-03,02:40:00,2.182
2023-10-03,02:50:00,2.183
2023-10-03,03:00:00,2.184
2023-10-03,03:10:00,2.182
2023-10-03,03:20:00,2.161
2023-10-03,03:30:00,2.182
2023-10-03,03:40:00,2.16
2023-10-03,03:50:00,2.158
2023-10-03,04:00:00,2.16
2023-10-03,04:10:00,2.158
2023-10-03,04:20:00,2.182
2023-10-03,04:30:00,2.184
2023-10-03,04:40:00,2.176
2023-10-03,04:50:00,2.181
2023-10-03,05:00:00,2.177
2023-10-03,05:10:00,2.179
2023-10-03,05:20:00,2.184
2023-10-03,05:30:00,2.178
2023-10-03,05:40:00,2.184
2023-10-03,05:50:00,2.182
2023-10-03,06:00:00,2.183
2023-10-03,06:10:00,2.184
2023-10-03,06:20:00,2.185
2023-10-03,06:30:00,2.181
2023-10-03,06:40:00,2.184
2023-10-03,06:50:00,2.183
2023-10-03,07:00:00,2.184
2023-10-03,07:10:00,2.184
2023-10-03,07:20:00,2.182
2023-10-03,07:30:00,2.162
2023-10-03,07:40:00,2.157
2023-10-03,07:50:00,2.16
2023-10-03,08:00:00,2.165
2023-10-03,08:10:00,2.179
2023-10-03,08:20:00,2.172
2023-10-03,08:30:00,2.172
2023-10-03,08:40:00,2.158
2023-10-03,08:50:00,2.178
2023-10-03,09:00:00,2.175
2023-10-03,09:10:00,2.155
2023-10-03,09:20:00,2.158
2023-10-03,09:30:00,2.37
2023-10-03,09:40:00,2.176
2023-10-03,09:50:00,2.163
2023-10-03,10:00:00,2.172
2023-10-03,10:10:00,2.164
2023-10-03,10:20:00,2.177
2023-10-03,10:30:00,2.175
2023-10-03,10:40:00,2.178
2023-10-03,10:50:00,2.168
2023-10-03,11:00:00,2.144
2023-10-03,11:10:00,2.178
2023-10-03,11:20:00,2.179
2023-10-03,11:30:00,2.179
2023-10-03,11:40:00,2.178
2023-10-03,11:50:00,2.136
2023-10-03,12:00:00,2.178
2023-10-03,12:10:00,2.178
2023-10-03,12:20:00,2.169
2023-10-03,12:30:00,2.171
2023-10-03,12:40:00,2.181
2023-10-03,12:50:00,2.179
2023-10-03,13:00:00,2.179
2023-10-03,13:10:00,2.141
2023-10-03,13:20:00,2.891
2023-10-03,13:30:00,2.44
2023-10-03,13:40:00,2.179
2023-10-03,13:50:00,2.181
2023-10-03,14:00:00,2.181
2023-10-03,14:10:00,2.154
2023-10-03,14:20:00,2.181
2023-10-03,14:30:00,2.181
2023-10-03,14:40:00,2.181
2023-10-03,14:50:00,2.182
2023-10-03,15:00:00,2.182
2023-10-03,15:10:00,2.182
2023-10-03,15:20:00,2.182
2023-10-03,15:30:00,2.182
2023-10-03,15:40:00,2.182
2023-10-03,15:50:00,2.183
2023-10-03,16:00:00,2.183
2023-10-03,16:10:00,2.167
2023-10-03,16:20:00,2.161
2023-10-03,16:30:00,2.17
2023-10-03,16:40:00,2.154
2023-10-03,16:50:00,2.172
2023-10-03,17:00:00,2.185
2023-10-03,17:10:00,2.185
2023-10-03,17:20:00,2.185
2023-10-03,17:30:00,2.188
2023-10-03,17:40:00,2.188
2023-10-03,17:50:00,2.189
2023-10-03,18:00:00,2.185
2023-10-03,18:10:00,2.185
2023-10-03,18:20:00,2.184
2023-10-03,18:30:00,2.182
2023-10-03,18:40:00,2.182
2023-10-03,18:50:00,2.169
2023-10-03,19:00:00,2.175
2023-10-03,19:10:00,2.181
2023-10-03,19:20:00,2.164
2023-10-03,19:30:00,2.167
2023-10-03,19:40:00,2.179
2023-10-03,19:50:00,2.186
2023-10-03,20:00:00,2.192
2023-10-03,20:10:00,2.194
2023-10-03,20:20:00,2.186
2023-10-03,20:30:00,2.167
2023-10-03,20:40:00,2.163
2023-10-03,20:50:00,2.163
2023-10-03,21:00:00,2.168
2023-10-03,21:10:00,2.164
2023-10-03,21:20:00,2.171
2023-10-03,21:30:00,2.163
2023-10-03,21:40:00,2.168
2023-10-03,21:50:00,2.178
2023-10-03,22:00:00,2.189
2023-10-03,22:10:00,2.17
2023-10-03,22:20:00,2.177
2023-10-03,22:30:00,2.169
2023-10-03,22:40:00,2.169
2023-10-03,22:50:00,2.171
2023-10-03,23:00:00,2.171
2023-10-03,23:10:00,2.182
2023-10-03,23:20:00,2.177
2023-10-03,23:30:00,2.176
2023-10-03,23:40:00,2.182
2023-10-03,23:50:00,2.177
2023-10-04,00:00:00,2.176
2023-10-04,00:10:00,2.169
2023-10-04,00:20:00,2.178
2023-10-04,00:30:00,2.178
2023-10-04,00:40:00,2.182
2023-10-04,00:50:00,2.188
2023-10-04,01:00:00,2.188
2023-10-04,01:10:00,2.183
2023-10-04,01:20:00,2.194
2023-10-04,01:30:00,2.189
2023-10-04,01:40:00,2.191
2023-10-04,01:50:00,2.205
2023-10-04,02:00:00,2.205
2023-10-04,02:10:00,2.202
2023-10-04,02:20:00,2.206
2023-10-04,02:30:00,2.206
2023-10-04,02:40:00,2.191
2023-10-04,02:50:00,2.208
2023-10-04,03:00:00,2.206
2023-10-04,03:10:00,2.206
2023-10-04,03:20:00,2.208
2023-10-04,03:30:00,2.208
2023-10-04,03:40:00,2.182
2023-10-04,03:50:00,2.208
2023-10-04,04:00:00,2.209
2023-10-04,04:10:00,2.211
2023-10-04,04:20:00,2.21
2023-10-04,04:30:00,2.209
2023-10-04,04:40:00,2.21
2023-10-04,04:50:00,2.21
2023-10-04,05:00:00,2.205
2023-10-04,05:10:00,2.212
2023-10-04,05:20:00,2.208
2023-10-04,05:30:00,2.208
2023-10-04,05:40:00,2.205
2023-10-04,05:50:00,2.21
2023-10-04,06:00:00,2.206
2023-10-04,06:10:00,2.203
2023-10-04,06:20:00,2.206
2023-10-04,06:30:00,2.206
2023-10-04,06:40:00,2.208
2023-10-04,06:50:00,2.208
2023-10-04,07:00:00,2.208
2023-10-04,07:10:00,2.208
2023-10-04,07:20:00,2.208
2023-10-04,07:30:00,2.191
2023-10-04,07:40:00,2.189
2023-10-04,07:50:00,2.186
2023-10-04,08:00:00,2.185
2023-10-04,08:10:00,2.206
2023-10-04,08:20:00,2.208
2023-10-04,08:30:00,2.206
2023-10-04,08:40:00,2.203
2023-10-04,08:50:00,2.206
2023-10-04,09:00:00,2.205
2023-10-04,09:10:00,2.184
2023-10-04,09:20:00,2.206
2023-10-04,09:30:00,2.206
2023-10-04,09:40:00,2.205
2023-10-04,09:50:00,2.205
2023-10-04,10:00:00,2.206
2023-10-04,10:10:00,2.205
2023-10-04,10:20:00,2.205
2023-10-04,10:30:00,2.205
2023-10-04,10:40:00,2.205
2023-10-04,10:50:00,2.205
2023-10-04,11:00:00,2.205
2023-10-04,11:10:00,2.208
2023-10-04,11:20:00,2.205
2023-10-04,11:30:00,2.205
2023-10-04,11:40:00,2.185
2023-10-04,11:50:00,2.177
2023-10-04,12:00:00,2.201
2023-10-04,12:10:00,2.205
2023-10-04,12:20:00,2.205
2023-10-04,12:30:00,2.205
2023-10-04,12:40:00,2.176
2023-10-04,12:50:00,2.197
2023-10-04,13:00:00,2.178
2023-10-04,13:10:00,2.185
2023-10-04,13:20:00,2.194
2023-10-04,13:30:00,2.189
2023-10-04,13:40:00,2.197
2023-10-04,13:50:00,2.183
2023-10-04,14:00:00,2.178
2023-10-04,14:10:00,2.175
2023-10-04,14:20:00,2.182
2023-10-04,14:30:00,2.186
2023-10-04,14:40:00,2.183
2023-10-04,14:50:00,2.204
2023-10-04,15:00:00,2.178
2023-10-04,15:10:00,2.178
2023-10-04,15:20:00,2.183
2023-10-04,15:30:00,2.197
2023-10-04,15:40:00,2.178
2023-10-04,15:50:00,2.171
2023-10-04,16:00:00,2.177
2023-10-04,16:10:00,2.184
2023-10-04,16:20:00,2.177
2023-10-04,16:30:00,2.191
2023-10-04,16:40:00,2.205
2023-10-04,16:50:00,2.204
2023-10-04,17:00:00,2.205
2023-10-04,17:10:00,2.182
2023-10-04,17:20:00,2.168
2023-10-04,17:30:00,2.177
2023-10-04,17:40:00,2.179
2023-10-04,17:50:00,2.179
2023-10-04,18:00:00,2.204
2023-10-04,18:10:00,2.203
2023-10-04,18:20:00,2.209
2023-10-04,18:30:00,2.213
2023-10-04,18:40:00,2.213
2023-10-04,18:50:00,2.197
2023-10-04,19:00:00,2.209
2023-10-04,19:10:00,2.179
2023-10-04,19:20:00,2.21
2023-10-04,19:30:00,2.212
2023-10-04,19:40:00,2.213
2023-10-04,19:50:00,2.215
2023-10-04,20:00:00,2.215
2023-10-04,20:10:00,2.21
2023-10-04,20:20:00,2.201
2023-10-04,20:30:00,2.195
2023-10-04,20:40:00,2.195
2023-10-04,20:50:00,2.203
2023-10-04,21:00:00,2.218
2023-10-04,21:10:00,2.217
2023-10-04,21:20:00,2.218
2023-10-04,21:30:00,2.217
2023-10-04,21:40:00,2.218
2023-10-04,21:50:00,2.217
2023-10-04,22:00:00,2.218
2023-10-04,22:10:00,2.217
2023-10-04,22:20:00,2.216
2023-10-04,22:30:00,2.22
2023-10-04,22:40:00,2.217
2023-10-04,22:50:00,2.219
2023-10-04,23:00:00,2.22
2023-10-04,23:10:00,2.219
2023-10-04,23:20:00,2.22
2023-10-04,23:30:00,2.22
2023-10-04,23:40:00,2.217
2023-10-04,23:50:00,2.218
2023-10-05,00:00:00,2.22
2023-10-05,00:10:00,2.219
2023-10-05,00:20:00,2.217
2023-10-05,00:30:00,2.217
2023-10-05,00:40:00,2.219
2023-10-05,00:50:00,2.223
2023-10-05,01:00:00,2.183
2023-10-05,01:10:00,2.387
2023-10-05,01:20:00,2.205
2023-10-05,01:30:00,2.396
2023-10-05,01:40:00,2.181
2023-10-05,01:50:00,2.719
2023-10-05,02:00:00,2.388
2023-10-05,02:10:00,2.182
2023-10-05,02:20:00,2.692
2023-10-05,02:30:00,2.682
2023-10-05,02:40:00,2.397
2023-10-05,02:50:00,2.682
2023-10-05,03:00:00,2.683
2023-10-05,03:10:00,2.677
2023-10-05,03:20:00,2.687
2023-10-05,03:30:00,2.674
2023-10-05,03:40:00,2.878
2023-10-05,03:50:00,3.555
2023-10-05,04:00:00,3.601
2023-10-05,04:10:00,3.593
2023-10-05,04:20:00,3.572
2023-10-05,04:30:00,3.558
2023-10-05,04:40:00,3.599
2023-10-05,04:50:00,3.593
2023-10-05,05:00:00,3.566
2023-10-05,05:10:00,3.581
2023-10-05,05:20:00,3.548
2023-10-05,05:30:00,3.587
2023-10-05,05:40:00,3.356
2023-10-05,05:50:00,3.33
2023-10-05,06:00:00,3.324
2023-10-05,06:10:00,2.765
2023-10-05,06:20:00,3.576
2023-10-05,06:30:00,3.48
2023-10-05,06:40:00,3.293
2023-10-05,06:50:00,2.334
2023-10-05,07:00:00,2.996
2023-10-05,07:10:00,3.252
2023-10-05,07:20:00,2.888
2023-10-05,07:30:00,2.206
2023-10-05,07:40:00,2.226
2023-10-05,07:50:00,2.225
2023-10-05,08:00:00,2.225
2023-10-05,08:10:00,2.225
2023-10-05,08:20:00,2.225
2023-10-05,08:30:00,2.224
2023-10-05,08:40:00,2.222
2023-10-05,08:50:00,2.225
2023-10-05,09:00:00,2.22
2023-10-05,09:10:00,2.223
2023-10-05,09:20:00,2.222
2023-10-05,09:30:00,2.224
2023-10-05,09:40:00,2.22
2023-10-05,09:50:00,2.225
2023-10-05,10:00:00,2.222
2023-10-05,10:10:00,2.224
2023-10-05,10:20:00,2.211
2023-10-05,10:30:00,2.226
2023-10-05,10:40:00,2.225
2023-10-05,10:50:00,2.225
2023-10-05,11:00:00,2.224
2023-10-05,11:10:00,2.223
2023-10-05,11:20:00,2.225
2023-10-05,11:30:00,2.225
2023-10-05,11:40:00,2.225
2023-10-05,11:50:00,2.223
2023-10-05,12:00:00,2.191
2023-10-05,12:10:00,2.224
2023-10-05,12:20:00,2.205
2023-10-05,12:30:00,2.225
2023-10-05,12:40:00,2.204
2023-10-05,12:50:00,2.22
2023-10-05,13:00:00,2.219
2023-10-05,13:10:00,2.22
2023-10-05,13:20:00,2.223
2023-10-05,13:30:00,2.188
2023-10-05,13:40:00,2.194
2023-10-05,13:50:00,2.218
2023-10-05,14:00:00,2.224
2023-10-05,14:10:00,2.224
2023-10-05,14:20:00,2.219
2023-10-05,14:30:00,2.223
2023-10-05,14:40:00,2.225
2023-10-05,14:50:00,2.226
2023-10-05,15:00:00,2.223
2023-10-05,15:10:00,2.226
2023-10-05,15:20:00,2.227
2023-10-05,15:30:00,2.227
2023-10-05,15:40:00,2.227
2023-10-05,15:50:00,2.225
2023-10-05,16:00:00,2.227
2023-10-05,16:10:00,2.227
2023-10-05,16:20:00,2.227
2023-10-05,16:30:00,2.225
2023-10-05,16:40:00,2.227
2023-10-05,16:50:00,2.227
2023-10-05,17:00:00,2.226
2023-10-05,17:10:00,2.229
2023-10-05,17:20:00,2.226
2023-10-05,17:30:00,2.23
2023-10-05,17:40:00,2.23
2023-10-05,17:50:00,2.23
2023-10-05,18:00:00,2.23
2023-10-05,18:10:00,2.23
2023-10-05,18:20:00,2.231
2023-10-05,18:30:00,2.232
2023-10-05,18:40:00,2.201
2023-10-05,18:50:00,2.231
2023-10-05,19:00:00,2.231
2023-10-05,19:10:00,2.23
2023-10-05,19:20:00,2.232
2023-10-05,19:30:00,2.233
2023-10-05,19:40:00,2.235
2023-10-05,19:50:00,2.232
2023-10-05,20:00:00,2.232
2023-10-05,20:10:00,2.233
2023-10-05,20:20:00,2.229
2023-10-05,20:30:00,2.211
2023-10-05,20:40:00,2.22
2023-10-05,20:50:00,2.225
2023-10-05,21:00:00,2.233
2023-10-05,21:10:00,2.235
2023-10-05,21:20:00,2.235
2023-10-05,21:30:00,2.233
2023-10-05,21:40:00,2.236
2023-10-05,21:50:00,2.236
2023-10-05,22:00:00,2.216
2023-10-05,22:10:00,2.237
2023-10-05,22:20:00,2.233
2023-10-05,22:30:00,2.236
2023-10-05,22:40:00,2.237
2023-10-05,22:50:00,2.237
2023-10-05,23:00:00,2.237
2023-10-05,23:10:00,2.236
2023-10-05,23:20:00,2.239
2023-10-05,23:30:00,2.239
2023-10-05,23:40:00,2.239
2023-10-05,23:50:00,2.217
2023-10-06,00:00:00,2.22
2023-10-06,00:10:00,2.217
2023-10-06,00:20:00,2.239
2023-10-06,00:30:00,2.24
2023-10-06,00:40:00,2.242
2023-10-06,00:50:00,2.24
2023-10-06,01:00:00,2.242
2023-10-06,01:10:00,2.24
2023-10-06,01:20:00,2.24
2023-10-06,01:30:00,2.242
2023-10-06,01:40:00,2.242
2023-10-06,01:50:00,2.242
2023-10-06,02:00:00,2.243
2023-10-06,02:10:00,2.242
2023-10-06,02:20:00,2.243
2023-10-06,02:30:00,2.243
2023-10-06,02:40:00,2.243
2023-10-06,02:50:00,2.224
2023-10-06,03:00:00,2.231
2023-10-06,03:10:00,2.217
2023-10-06,03:20:00,2.213
2023-10-06,03:30:00,2.223
2023-10-06,03:40:00,2.237
2023-10-06,03:50:00,2.233
2023-10-06,04:00:00,2.235
2023-10-06,04:10:00,2.231
2023-10-06,04:20:00,2.23
2023-10-06,04:30:00,2.235
2023-10-06,04:40:00,2.249
2023-10-06,04:50:00,2.247
2023-10-06,05:00:00,2.235
2023-10-06,05:10:00,2.247
2023-10-06,05:20:00,2.249
2023-10-06,05:30:00,2.249
2023-10-06,05:40:00,2.247
2023-10-06,05:50:00,2.249
2023-10-06,06:00:00,2.25
2023-10-06,06:10:00,2.249
2023-10-06,06:20:00,2.25
2023-10-06,06:30:00,2.249
2023-10-06,06:40:00,2.249
2023-10-06,06:50:00,2.249
2023-10-06,07:00:00,2.25
2023-10-06,07:10:00,2.25
2023-10-06,07:20:00,2.25
2023-10-06,07:30:00,2.25
2023-10-06,07:40:00,2.25
2023-10-06,07:50:00,2.25
2023-10-06,08:00:00,2.25
2023-10-06,08:10:00,2.251
2023-10-06,08:20:00,2.25
2023-10-06,08:30:00,2.25
2023-10-06,08:40:00,2.25
2023-10-06,08:50:00,2.239
2023-10-06,09:00:00,2.24
2023-10-06,09:10:00,2.236
2023-10-06,09:20:00,2.219
2023-10-06,09:30:00,2.219
2023-10-06,09:40:00,2.232
2023-10-06,09:50:00,2.237
2023-10-06,10:00:00,2.226
2023-10-06,10:10:00,2.229
2023-10-06,10:20:00,2.24
2023-10-06,10:30:00,2.229
2023-10-06,10:40:00,2.246
2023-10-06,10:50:00,2.219
2023-10-06,11:00:00,2.224
2023-10-06,11:10:00,2.247
2023-10-06,11:20:00,2.242
2023-10-06,11:30:00,2.222
2023-10-06,11:40:00,2.219
2023-10-06,11:50:00,2.225
2023-10-06,12:00:00,2.235
2023-10-06,12:10:00,2.238
2023-10-06,12:20:00,2.226
2023-10-06,12:30:00,2.231
2023-10-06,12:40:00,2.239
2023-10-06,12:50:00,2.229
2023-10-06,13:00:00,2.231
2023-10-06,13:10:00,2.238
2023-10-06,13:20:00,2.235
2023-10-06,13:30:00,2.235
2023-10-06,13:40:00,2.24
2023-10-06,13:50:00,2.247
2023-10-06,14:00:00,2.247
2023-10-06,14:10:00,2.237
2023-10-06,14:20:00,2.686
2023-10-06,14:30:00,2.251
2023-10-06,14:40:00,2.239
2023-10-06,14:50:00,2.243
2023-10-06,15:00:00,2.238
2023-10-06,15:10:00,2.24
2023-10-06,15:20:00,2.25
2023-10-06,15:30:00,2.256
2023-10-06,15:40:00,2.27
2023-10-06,15:50:00,2.278
2023-10-06,16:00:00,2.278
2023-10-06,16:10:00,2.263
2023-10-06,16:20:00,2.277
2023-10-06,16:30:00,2.251
2023-10-06,16:40:00,2.261
2023-10-06,16:50:00,2.251
2023-10-06,17:00:00,2.258
2023-10-06,17:10:00,2.258
2023-10-06,17:20:00,2.259
2023-10-06,17:30:00,2.28
2023-10-06,17:40:00,2.254
2023-10-06,17:50:00,2.26
2023-10-06,18:00:00,2.281
2023-10-06,18:10:00,2.281
2023-10-06,18:20:00,2.284
2023-10-06,18:30:00,2.265
2023-10-06,18:40:00,2.265
2023-10-06,18:50:00,2.256
2023-10-06,19:00:00,2.253
2023-10-06,19:10:00,2.281
2023-10-06,19:20:00,2.28
2023-10-06,19:30:00,2.283
2023-10-06,19:40:00,2.285
2023-10-06,19:50:00,2.276
2023-10-06,20:00:00,2.287
2023-10-06,20:10:00,2.283
2023-10-06,20:20:00,2.287
2023-10-06,20:30:00,2.287
2023-10-06,20:40:00,2.287
2023-10-06,20:50:00,2.288
2023-10-06,21:00:00,2.29
2023-10-06,21:10:00,2.288
2023-10-06,21:20:00,2.287
2023-10-06,21:30:00,2.279
2023-10-06,21:40:00,2.29
2023-10-06,21:50:00,2.288
2023-10-06,22:00:00,2.29
2023-10-06,22:10:00,2.287
2023-10-06,22:20:00,2.28
2023-10-06,22:30:00,2.285
2023-10-06,22:40:00,2.276
2023-10-06,22:50:00,2.291
2023-10-06,23:00:00,2.291
2023-10-06,23:10:00,2.29
2023-10-06,23:20:00,2.274
2023-10-06,23:30:00,2.281
2023-10-06,23:40:00,2.267
2023-10-06,23:50:00,2.283
2023-10-07,00:00:00,2.292
2023-10-07,00:10:00,2.28
2023-10-07,00:20:00,2.272
2023-10-07,00:30:00,2.292
2023-10-07,00:40:00,2.264
2023-10-07,00:50:00,2.288
2023-10-07,01:00:00,2.294
2023-10-07,01:10:00,2.266
2023-10-07,01:20:00,2.294
2023-10-07,01:30:00,2.294
2023-10-07,01:40:00,2.285
2023-10-07,01:50:00,2.276
2023-10-07,02:00:00,2.265
2023-10-07,02:10:00,2.295
2023-10-07,02:20:00,2.295
2023-10-07,02:30:00,2.295
2023-10-07,02:40:00,2.297
2023-10-07,02:50:00,2.297
2023-10-07,03:00:00,2.298
2023-10-07,03:10:00,2.297
2023-10-07,03:20:00,2.298
2023-10-07,03:30:00,2.298
2023-10-07,03:40:00,2.298
2023-10-07,03:50:00,2.298
2023-10-07,04:00:00,2.298
2023-10-07,04:10:00,2.29
2023-10-07,04:20:00,2.299
2023-10-07,04:30:00,2.299
2023-10-07,04:40:00,2.299
2023-10-07,04:50:00,2.299
2023-10-07,05:00:00,2.299
2023-10-07,05:10:00,2.298
2023-10-07,05:20:00,2.278
2023-10-07,05:30:00,2.3
2023-10-07,05:40:00,2.301
2023-10-07,05:50:00,2.301
2023-10-07,06:00:00,2.29
2023-10-07,06:10:00,2.291
2023-10-07,06:20:00,2.301
2023-10-07,06:30:00,2.301
2023-10-07,06:40:00,2.286
2023-10-07,06:50:00,2.301
2023-10-07,07:00:00,2.3
2023-10-07,07:10:00,2.274
2023-10-07,07:20:00,2.279
2023-10-07,07:30:00,2.277
2023-10-07,07:40:00,2.278
2023-10-07,07:50:00,2.272
2023-10-07,08:00:00,2.267
2023-10-07,08:10:00,2.278
2023-10-07,08:20:00,2.273
2023-10-07,08:30:00,2.28
2023-10-07,08:40:00,2.274
2023-10-07,08:50:00,2.274
2023-10-07,09:00:00,2.272
2023-10-07,09:10:00,2.272
2023-10-07,09:20:00,2.269
2023-10-07,09:30:00,2.276
2023-10-07,09:40:00,2.273
2023-10-07,09:50:00,2.276
2023-10-07,10:00:00,2.277
2023-10-07,10:10:00,2.277